User: anonymous   Login
Location: Unspecified
(0.0000°N, 0.0000°E)
Time: 17:07:54
(UTC+00:00)
Language:

Courier 1B - Orbit

View from above orbital plane
View from above orbital plane
View from above satellite
View from above satellite

Ground track
Ground track

The orbit data is extracted from the following two-line orbital elements,

1 00058U 60013A   15237.83880457  .00000091  00000-0  65674-5 0  9997
2 00058 028.3302 011.3173 0165093 278.0527 080.1317 13.46295513702114
Epoch (UTC): 25 August 2015 20:07:52
Eccentricity: 0.0165093
inclination: 28.3302°
perigee height: 962 km
apogee height: 1209 km
right ascension of ascending node: 11.3173°
argument of perigee: 278.0527°
revolutions per day: 13.46295513
mean anomaly at epoch: 80.1317°
orbit number at epoch: 70211

The dashed part of the orbit path shows where the satellite is in the earth's shadow,  

DLR